Amsterdam, Netherlands

9:07 AM CEST on September 20, 2017 (GMT +0200)
Schiphol

Weather History for EHAM - February, 2014

Change the Weather History Date:

Monday, February 17, 2014

  Actual Average Record
Temperature  
Mean Temperature 42 °F -  
Max Temperature 51 °F 46 °F 51 °F (2007)
Min Temperature 32 °F 35 °F 23 °F (2008)
Degree Days  
Heating Degree Days 24    
Moisture  
Dew Point 39 °F    
Average Humidity 86    
Maximum Humidity 100    
Minimum Humidity 62    
Precipitation  
Precipitation 0.00 in - - ()
Sea Level Pressure  
Sea Level Pressure 29.87 in    
Wind  
Wind Speed 7 mph ()    
Max Wind Speed 14 mph    
Max Gust Speed -    
Visibility 9.0 miles    
Events      
Averages and records for this station are not official NWS values.
T = Trace of Precipitation, MM = Missing Value Source: Averaged Metar Reports

Daily Weather History Graph

Daily Weather History Graph

Search for Another Location

Airport or City:

Trip Planner

Search our weather history database for the weather conditions in past years. The results will help you decide how hot, cold, wet, or windy it might be!

Date:

Astronomy

Feb. 17, 2014 Rise Set
Actual Time 7:52 AM CET 5:57 PM CET
Civil Twilight 7:17 AM CET 6:32 PM CET
Nautical Twilight 6:38 AM CET 7:12 PM CET
Astronomical Twilight 5:59 AM CET 7:51 PM CET
Moon 9:03 PM CET (2/17) 8:22 AM CET (2/17)
Length of Visible Light 11h 14m
Length of Day
10h 04m
Waning Gibbous, 94% of the Moon is Illuminated
Feb 17
Waning Gibbous
Feb 22
Last Quarter
Mar 1
New
Mar 8
First Quarter
Mar 16
Full

Hourly Weather History & Observations

Time (CET) Temp. Windchill Dew Point Humidity Pressure Visibility Wind Dir Wind Speed Gust Speed Precip Events Conditions
12:00 AM 36 °F - 33 °F 86% 29.83 in 13 mi SSW 6.7 mph - -   Partly Cloudy
12:25 AM 35.6 °F 31.7 °F 33.8 °F 93% 29.80 in 6.2 mi South 4.6 mph - N/A   Partly Cloudy
12:55 AM 35.6 °F 29.9 °F 32.0 °F 87% 29.83 in 6.2 mi South 6.9 mph - N/A   Partly Cloudy
1:00 AM 35 °F - 33 °F 89% 29.83 in 14 mi South 6.7 mph - -   Partly Cloudy
1:25 AM 33.8 °F 29.6 °F 32.0 °F 93% 29.80 in 6.2 mi South 4.6 mph - N/A   Partly Cloudy
1:55 AM 35.6 °F 29.9 °F 32.0 °F 87% 29.80 in 6.2 mi SSE 6.9 mph - N/A   Partly Cloudy
2:00 AM 35 °F - 33 °F 87% 29.82 in 12 mi SSE 6.7 mph - -   Scattered Clouds
2:25 AM 33.8 °F 28.6 °F 32.0 °F 93% 29.80 in 6.2 mi SSE 5.8 mph - N/A   Partly Cloudy
2:55 AM 33.8 °F 28.6 °F 32.0 °F 93% 29.80 in 6.2 mi SSE 5.8 mph - N/A   Partly Cloudy
3:00 AM 34 °F - 33 °F 92% 29.82 in 9 mi SE 4.5 mph - -  
3:25 AM 33.8 °F 29.6 °F 33.8 °F 100% 29.80 in - SSE 4.6 mph - N/A   Clear
3:55 AM 35.6 °F 29.9 °F 33.8 °F 93% 29.80 in - SE 6.9 mph - N/A   Clear
4:00 AM 35 °F - 34 °F 94% 29.81 in 7 mi SSE 6.7 mph - -   Scattered Clouds
4:25 AM 35.6 °F 32.8 °F 33.8 °F 93% 29.80 in - SSE 3.5 mph - N/A   Clear
4:55 AM 33.8 °F 29.6 °F 33.8 °F 100% 29.80 in 6.2 mi SSE 4.6 mph - N/A   Partly Cloudy
5:00 AM 35 °F - 34 °F 92% 29.81 in 6 mi SE 6.7 mph - -   Mist
5:25 AM 35.6 °F 29.9 °F 35.6 °F 100% 29.80 in - SE 6.9 mph - N/A   Clear
5:55 AM 37.4 °F 32.1 °F 35.6 °F 93% 29.80 in - SSE 6.9 mph - N/A   Clear
6:00 AM 37 °F - 36 °F 92% 29.81 in 6 mi SSE 6.7 mph - -   Overcast
6:25 AM 37.4 °F 32.8 °F 35.6 °F 93% 29.80 in - SSE 5.8 mph - N/A   Clear
6:55 AM 37.4 °F 32.1 °F 35.6 °F 93% 29.80 in - SSE 6.9 mph - N/A   Clear
7:00 AM 36 °F - 35 °F 96% 29.83 in 7 mi SSE 6.7 mph - -   Partly Cloudy
7:25 AM 37.4 °F 32.1 °F 35.6 °F 93% 29.80 in - SSE 6.9 mph - N/A   Clear
7:55 AM 37.4 °F 32.1 °F 35.6 °F 93% 29.83 in - SSE 6.9 mph - N/A   Clear
8:00 AM 38 °F - 36 °F 92% 29.84 in 9 mi SSE 6.7 mph - -   Overcast
8:25 AM 39.2 °F 33.6 °F 37.4 °F 93% 29.83 in - South 8.1 mph - N/A   Clear
8:55 AM 39.2 °F 33.6 °F 37.4 °F 93% 29.83 in - South 8.1 mph - N/A   Clear
9:00 AM 40 °F - 38 °F 88% 29.85 in 12 mi South 8.9 mph - -   Mostly Cloudy
9:25 AM 41.0 °F 35.8 °F 39.2 °F 93% 29.83 in - South 8.1 mph - N/A   Clear
9:55 AM 41.0 °F 35.8 °F 39.2 °F 93% 29.83 in - South 8.1 mph - N/A   Clear
10:00 AM 41 °F - 39 °F 91% 29.86 in 12 mi South 8.9 mph - -   Partly Cloudy
10:25 AM 42.8 °F 38.6 °F 41.0 °F 93% 29.86 in 6.2 mi South 6.9 mph - N/A   Scattered Clouds
10:55 AM 44.6 °F 39.2 °F 41.0 °F 87% 29.86 in 6.2 mi SSW 10.4 mph - N/A   Mostly Cloudy
11:00 AM 44 °F - 42 °F 89% 29.88 in 11 mi SSW 11.2 mph - -   Overcast
11:25 AM 44.6 °F 39.7 °F 41.0 °F 87% 29.86 in 6.2 mi South 9.2 mph - N/A   Mostly Cloudy
11:55 AM 46.4 °F 41.1 °F 42.8 °F 87% 29.86 in 6.2 mi SSW 11.5 mph - N/A   Mostly Cloudy
12:00 PM 46 °F - 43 °F 85% 29.89 in 7 mi SSW 11.2 mph - -   Overcast
12:25 PM 46.4 °F 41.5 °F 42.8 °F 87% 29.89 in 6.2 mi SSW 10.4 mph - N/A   Mostly Cloudy
12:55 PM 46.4 °F 40.7 °F 42.8 °F 87% 29.89 in 6.2 mi SW 12.7 mph - N/A   Mostly Cloudy
1:00 PM 46 °F - 43 °F 85% 29.91 in 6 mi SW 13.4 mph - -   Mist
1:25 PM 48.2 °F - 44.6 °F 87% 29.89 in 6.2 mi SW 9.2 mph - N/A   Scattered Clouds
1:55 PM 48.2 °F - 42.8 °F 82% 29.89 in 6.2 mi SSW 13.8 mph - N/A   Mostly Cloudy
2:00 PM 50 °F - 44 °F 71% 29.90 in 11 mi SSW 13.4 mph - -   Partly Cloudy
2:25 PM 50.0 °F - 42.8 °F 76% 29.89 in 6.2 mi South 10.4 mph - N/A   Partly Cloudy
2:55 PM 50.0 °F - 42.8 °F 76% 29.89 in 6.2 mi South 8.1 mph - N/A   Partly Cloudy
3:00 PM 50 °F - 43 °F 69% 29.90 in 14 mi South 8.9 mph - -   Scattered Clouds
3:25 PM 50.0 °F - 42.8 °F 76% 29.89 in 6.2 mi South 10.4 mph - N/A   Partly Cloudy
3:55 PM 51.8 °F - 42.8 °F 71% 29.89 in 6.2 mi SSW 11.5 mph - N/A   Partly Cloudy
4:00 PM 51 °F - 42 °F 62% 29.91 in 14 mi South 11.2 mph - -   Scattered Clouds
4:25 PM 50.0 °F - 42.8 °F 76% 29.89 in 6.2 mi South 9.2 mph - N/A   Partly Cloudy
4:55 PM 50.0 °F - 42.8 °F 76% 29.89 in 6.2 mi South 10.4 mph - N/A   Scattered Clouds
5:00 PM 49 °F - 42 °F 69% 29.91 in 16 mi South 11.2 mph - -   Overcast
5:25 PM 48.2 °F - 42.8 °F 82% 29.89 in 6.2 mi SSE 10.4 mph - N/A   Scattered Clouds
5:55 PM 48.2 °F - 42.8 °F 82% 29.92 in 6.2 mi South 10.4 mph - N/A   Mostly Cloudy
6:00 PM 48 °F - 43 °F 75% 29.92 in 16 mi South 8.9 mph - -   Overcast
6:25 PM 48.2 °F - 42.8 °F 82% 29.92 in 6.2 mi South 9.2 mph - N/A   Scattered Clouds
6:55 PM 46.4 °F 42.4 °F 42.8 °F 87% 29.92 in 6.2 mi SSE 8.1 mph - N/A   Partly Cloudy
7:00 PM 47 °F - 42 °F 77% 29.93 in 16 mi South 8.9 mph - -   Partly Cloudy
7:25 PM 46.4 °F 41.1 °F 41.0 °F 81% 29.92 in - South 11.5 mph - N/A   Clear
7:55 PM 46.4 °F 41.5 °F 41.0 °F 81% 29.92 in - South 10.4 mph - N/A   Clear
8:00 PM 47 °F - 41 °F 73% 29.94 in 19 mi South 11.2 mph - -   Overcast
8:25 PM 46.4 °F 40.7 °F 41.0 °F 81% 29.92 in - South 12.7 mph - N/A   Clear
8:55 PM 46.4 °F 41.1 °F 41.0 °F 81% 29.92 in - South 11.5 mph - N/A   Clear
9:00 PM 46 °F - 41 °F 75% 29.95 in 16 mi South 11.2 mph - -   Overcast
9:25 PM 46.4 °F 41.1 °F 41.0 °F 81% 29.92 in - South 11.5 mph - N/A   Clear
9:55 PM 44.6 °F 38.8 °F 41.0 °F 87% 29.92 in - South 11.5 mph - N/A   Clear
10:00 PM 45 °F - 40 °F 77% 29.95 in 17 mi South 11.2 mph - -   Overcast
10:25 PM 44.6 °F 38.1 °F 39.2 °F 81% 29.95 in - South 13.8 mph - N/A   Clear
10:55 PM 44.6 °F 38.4 °F 39.2 °F 81% 29.95 in - South 12.7 mph - N/A   Clear
11:00 PM 43 °F - 39 °F 80% 29.96 in 18 mi South 11.2 mph - -   Mostly Cloudy
11:25 PM 42.8 °F 36.6 °F 39.2 °F 87% 29.95 in - South 11.5 mph - N/A   Clear
11:55 PM 42.8 °F 36.6 °F 37.4 °F 81% 29.95 in - South 11.5 mph - N/A   Clear